Tracking 29892 objects as of 21-Nov-2024
HD Live streaming from Space Station
objects crossing your sky now

STARLINK-30887

Track STARLINK-30887 now!
10-day predictions
STARLINK-30887 is classified as:


NORAD ID: 58394
Int'l Code: 2023-178W
Perigee: 481.3 km
Apogee: 483.3 km
Inclination: 53.2 °
Period: 94.1 minutes
Semi major axis: 6853 km
RCS: Unknown
Launch date: November 20, 2023
Source: United States (US)
Launch site: AIR FORCE WESTERN TEST RANGE (AFWTR)
Your satellite tracking list
Your tracking list is empty




NASA's NSSDC Master Catalog

Two Line Element Set (TLE):
1 58394U 23178W   24325.91668981 -.00050807  00000-0 -17141-2 0  9992
2 58394  53.1603  41.9777 0001491  83.0872  85.2579 15.30215556  5933
Source of the keplerian elements: AFSPC